Weather History for Haines, AK

Change the Weather History Date:

Wednesday, December 5, 2012

  Actual Average Record
Temperature  
Mean Temperature 10 °F -  
Max Temperature 12 °F 31 °F 48 °F (1985)
Min Temperature 8 °F 24 °F -8 °F (1975)
Degree Days  
Heating Degree Days 55    
Moisture  
Dew Point 4 °F    
Average Humidity 77    
Maximum Humidity 87    
Minimum Humidity 56    
Precipitation  
Precipitation 0.05 in - - ()
Sea Level Pressure  
Sea Level Pressure 29.74 in    
Wind  
Wind Speed 15 mph (WNW)    
Max Wind Speed 21 mph    
Max Gust Speed 31 mph    
Visibility 4 miles    
Events Fog , Snow    
Averages and records for this station are not official NWS values.
T = Trace of Precipitation, MM = Missing Value Source: NWS Daily Summary

Daily Weather History Graph

Daily Weather History Graph

Search for Another Location

Airport:

Trip Planner

Search our weather history database for the weather conditions in past years. The results will help you decide how hot, cold, wet, or windy it might be!

Date:

Astronomy

Dec. 05, 2012 Rise Set
Actual Time 8:39 AM AKST 3:06 PM AKST
Civil Twilight 7:46 AM AKST 3:59 PM AKST
Nautical Twilight 6:52 AM AKST 4:53 PM AKST
Astronomical Twilight 6:02 AM AKST 5:43 PM AKST
Moon 11:24 PM AKST (12/5) 11:53 AM AKST (12/5)
Length of Visible Light 8h 13m
Length of Day
6h 26m
Waning Gibbous, 58% of the Moon is Illuminated
Dec 5
Waning Gibbous
Dec 6
Last Quarter
Dec 12
New
Dec 19
First Quarter
Dec 28
Full

Hourly Weather History & Observations

Time (AKST) Temp. Windchill Dew Point Humidity Pressure Visibility Wind Dir Wind Speed Gust Speed Precip Events Conditions
12:45 AM 8.6 °F -11.0 °F 1.4 °F 73% 29.64 in 2.0 mi WNW 20.7 mph 31.1 mph 0.00 in Snow Light Snow
12:54 AM 8.1 °F -11.2 °F 1.0 °F 73% 29.65 in 3.0 mi NW 19.6 mph 29.9 mph 0.00 in Snow Light Snow
1:54 AM 9.0 °F -9.0 °F 1.0 °F 70% 29.67 in 8.0 mi NW 17.3 mph 24.2 mph 0.00 in Snow Light Snow
2:54 AM 9.0 °F -8.5 °F 1.0 °F 70% 29.68 in 10.0 mi NW 16.1 mph 25.3 mph 0.00 in   Overcast
3:47 AM 8.6 °F -7.7 °F 1.4 °F 73% 29.68 in 10.0 mi NW 13.8 mph 23.0 mph N/A   Overcast
3:54 AM 9.0 °F -9.0 °F -0.0 °F 67% 29.68 in 10.0 mi WNW 17.3 mph 24.2 mph N/A   Overcast
5:54 AM 9.0 °F -5.9 °F -2.0 °F 61% 29.70 in 10.0 mi NW 11.5 mph 19.6 mph N/A   Overcast
6:54 AM 9.0 °F -7.9 °F -2.0 °F 61% 29.72 in 10.0 mi WNW 15.0 mph - N/A   Overcast
7:30 AM 8.6 °F -7.0 °F -2.2 °F 62% 29.71 in 10.0 mi WNW 12.7 mph - N/A   Overcast
7:54 AM 9.0 °F -8.5 °F -2.0 °F 61% 29.73 in 10.0 mi WNW 16.1 mph - N/A   Overcast
8:54 AM 10.0 °F -5.9 °F -2.9 °F 56% 29.74 in 10.0 mi WNW 13.8 mph 21.9 mph N/A   Overcast
9:54 AM 10.0 °F -7.1 °F -2.9 °F 56% 29.75 in 10.0 mi NW 16.1 mph 24.2 mph N/A   Overcast
10:54 AM 10.0 °F -7.6 °F -2.9 °F 56% 29.75 in 10.0 mi WNW 17.3 mph 21.9 mph N/A   Overcast
11:54 AM 10.0 °F -6.5 °F -2.9 °F 56% 29.75 in 10.0 mi WNW 15.0 mph - N/A   Overcast
12:54 PM 10.9 °F -5.4 °F -0.9 °F 59% 29.75 in 10.0 mi WNW 15.0 mph - N/A   Overcast
1:54 PM 10.9 °F -4.1 °F -0.9 °F 59% 29.75 in 8.0 mi WNW 12.7 mph - 0.00 in Snow Light Snow
2:12 PM 12.2 °F -1.8 °F 1.4 °F 62% 29.75 in 1.8 mi NW 11.5 mph - 0.00 in Snow Light Snow
2:19 PM 12.2 °F -4.8 °F 1.4 °F 62% 29.75 in 1.0 mi WNW 17.3 mph - 0.00 in Snow Light Snow
2:54 PM 10.0 °F -5.2 °F 5.0 °F 80% 29.76 in 0.8 mi West 12.7 mph - 0.00 in Snow Light Snow
3:10 PM 10.4 °F -6.0 °F 6.8 °F 85% 29.75 in 1.2 mi WNW 15.0 mph - 0.00 in Snow Light Snow
3:29 PM 10.4 °F -5.4 °F 5.0 °F 79% 29.75 in 3.0 mi WNW 13.8 mph - 0.00 in Snow Light Snow
3:40 PM 10.4 °F -6.0 °F 5.0 °F 79% 29.75 in 3.0 mi WNW 15.0 mph - 0.00 in Snow Light Snow
3:52 PM 10.4 °F -6.0 °F 5.0 °F 79% 29.75 in 2.5 mi WNW 15.0 mph - 0.00 in Snow Light Snow
3:54 PM 10.0 °F -6.5 °F 5.0 °F 80% 29.76 in 2.5 mi WNW 15.0 mph - 0.00 in Snow Light Snow
4:05 PM 10.4 °F -5.4 °F 5.0 °F 79% 29.75 in 1.8 mi WNW 13.8 mph - 0.00 in Snow Light Snow
4:30 PM 10.4 °F -6.0 °F 5.0 °F 79% 29.74 in 2.5 mi WNW 15.0 mph - 0.00 in Snow Light Snow
4:47 PM 10.4 °F -6.0 °F 5.0 °F 79% 29.74 in 1.2 mi WNW 15.0 mph - 0.00 in Snow Light Snow
4:54 PM 10.0 °F -4.5 °F 5.0 °F 80% 29.75 in 1.5 mi NW 11.5 mph - 0.00 in Snow Light Snow
5:22 PM 10.4 °F -4.8 °F 5.0 °F 79% 29.74 in 2.5 mi WNW 12.7 mph - 0.00 in Snow Light Snow
5:29 PM 10.4 °F -6.0 °F 5.0 °F 79% 29.74 in 3.0 mi WNW 15.0 mph 23.0 mph 0.00 in Snow Light Snow
5:37 PM 10.4 °F -5.4 °F 5.0 °F 79% 29.74 in 1.8 mi WNW 13.8 mph - 0.00 in Snow Light Snow
5:54 PM 10.9 °F -4.7 °F 6.1 °F 81% 29.75 in 1.2 mi WNW 13.8 mph - 0.00 in Snow Light Snow
6:04 PM 10.4 °F -4.1 °F 6.8 °F 85% 29.74 in 1.2 mi WNW 11.5 mph - 0.00 in Snow Light Snow
6:42 PM 10.4 °F -4.8 °F 6.8 °F 85% 29.74 in 1.8 mi WNW 12.7 mph - 0.00 in Snow Light Snow
6:49 PM 10.4 °F -5.4 °F 6.8 °F 85% 29.74 in 3.0 mi WNW 13.8 mph - 0.00 in Snow Light Snow
6:50 PM 10.0 °F -6.5 °F 6.1 °F 84% 29.75 in 3.0 mi WNW 15.0 mph - 0.00 in Snow Light Snow
6:57 PM 10.4 °F -5.4 °F 6.8 °F 85% 29.74 in 1.8 mi WNW 13.8 mph - 0.00 in Snow Light Snow
7:28 PM 10.4 °F -5.4 °F 6.8 °F 85% 29.73 in 1.0 mi WNW 13.8 mph - 0.00 in Snow Light Snow
7:40 PM 10.4 °F -5.4 °F 6.8 °F 85% 29.73 in 1.8 mi WNW 13.8 mph - 0.01 in Snow Light Snow
7:47 PM 10.4 °F -5.4 °F 6.8 °F 85% 29.73 in 2.5 mi WNW 13.8 mph - 0.01 in Snow Light Snow
7:54 PM 10.0 °F -6.5 °F 6.1 °F 84% 29.74 in 2.0 mi WNW 15.0 mph - 0.01 in Snow Light Snow
8:12 PM 10.4 °F -5.4 °F 6.8 °F 85% 29.74 in 3.0 mi WNW 13.8 mph - 0.00 in Snow Light Snow
8:21 PM 10.4 °F -4.1 °F 6.8 °F 85% 29.75 in 2.0 mi WNW 11.5 mph - 0.00 in Snow Light Snow
8:29 PM 10.4 °F -4.8 °F 6.8 °F 85% 29.75 in 1.2 mi WNW 12.7 mph - 0.00 in Snow Light Snow
8:40 PM 10.4 °F -4.8 °F 6.8 °F 85% 29.76 in 1.0 mi WNW 12.7 mph - 0.00 in Snow Light Snow
8:47 PM 10.4 °F -3.3 °F 6.8 °F 85% 29.76 in 0.8 mi WNW 10.4 mph - 0.00 in Snow Light Snow
8:54 PM 10.9 °F -2.6 °F 7.0 °F 84% 29.77 in 0.5 mi WNW 10.4 mph - 0.01 in Fog , Snow Snow
9:12 PM 10.4 °F -5.4 °F 6.8 °F 85% 29.75 in 1.0 mi WNW 13.8 mph - 0.00 in Snow Light Snow
9:22 PM 10.4 °F -4.8 °F 6.8 °F 85% 29.75 in 2.0 mi WNW 12.7 mph - 0.00 in Snow Light Snow
9:34 PM 10.4 °F -4.8 °F 6.8 °F 85% 29.75 in 4.0 mi WNW 12.7 mph - 0.00 in Snow Light Snow
9:47 PM 10.4 °F -6.6 °F 6.8 °F 85% 29.75 in 7.0 mi WNW 16.1 mph - 0.00 in Snow Light Snow
9:54 PM 10.0 °F -7.6 °F 6.1 °F 84% 29.75 in 9.0 mi WNW 17.3 mph - 0.00 in   Overcast
10:13 PM 10.4 °F -5.4 °F 6.8 °F 85% 29.76 in 2.5 mi West 13.8 mph - 0.00 in Snow Light Snow
10:21 PM 10.4 °F -5.4 °F 6.8 °F 85% 29.76 in 1.0 mi WNW 13.8 mph - 0.00 in Snow Light Snow
10:28 PM 10.4 °F -4.1 °F 6.8 °F 85% 29.76 in 0.8 mi WNW 11.5 mph - 0.00 in Snow Light Snow
10:43 PM 10.4 °F -6.0 °F 6.8 °F 85% 29.76 in 0.5 mi WNW 15.0 mph - 0.01 in Fog , Snow Snow
10:54 PM 10.0 °F -5.9 °F 6.1 °F 84% 29.78 in 0.8 mi WNW 13.8 mph - 0.02 in Snow Light Snow
11:20 PM 10.4 °F -5.4 °F 6.8 °F 85% 29.77 in 1.0 mi WNW 13.8 mph - 0.00 in Snow Light Snow
11:34 PM 10.4 °F -6.0 °F 6.8 °F 85% 29.77 in 1.8 mi WNW 15.0 mph - 0.00 in Snow Light Snow
11:42 PM 10.4 °F -4.8 °F 6.8 °F 85% 29.77 in 2.0 mi WNW 12.7 mph - 0.00 in Snow Light Snow
11:49 PM 10.4 °F -6.0 °F 6.8 °F 85% 29.77 in 1.2 mi WNW 15.0 mph - 0.01 in Snow Light Snow
11:54 PM 10.0 °F -5.9 °F 7.0 °F 87% 29.78 in 1.2 mi WNW 13.8 mph - 0.01 in Snow Light Snow